Content
SEND FEEDBACK

Daily
Averages
Monthly
Summary
Turkmenistan

ASHGABAT, TURKMENISTAN


Home > Asia > Turkmenistan
Elevation: 775 feet     Latitude: 37 58N     Longitude: 058 20E

WEATHER
 
SELECT A DAY
Number of Records: 177,560;   Date Range: 3/15/97 - 9/18/14
 
SHARE

PRINT THIS DATA

[ ← Previous Day ]
WEATHER ALMANAC - APRIL 8, 2013
[ Next Day → ]
[ °C ]   °F
Weather ElementAverageHighLow
Temperature68.5 °F82.4 °F (1:00 pm)52 °F (5:00 am)
Dewpoint36.4 °F43 °F (2:00 am)28.4 °F (12:00 pm)
Humidity33.3 %62 % (6:00 am)7 % (5:00 pm)
Barometer29.90 in29.95 in (7:00 am)29.84 in (5:00 pm)
Wind Speed8.7 mph17.9 mph (5:00 pm)
Wind Gust26.8 mph (3:00 pm)
Weather ElementAverage
Visibility6.1 mi
Wind DirectionESE (128 °)

Weather ElementTotal
Precipitation---
Cooling Degree Days2.2 (Base 65)
Growing Degree Days17.2 (Base 50)
Averaged from 31 records on April 8, 2013
WEATHER CONDITIONS BREAKOUT
WIND DIRECTION BREAKOUT
WEATHER BY HOUR - APRIL 8, 2013
[ °C ]   °F
Local TimeTemperatureDewpointHumidityBarometerVisibilityWind DirectionWind SpeedGust SpeedPrecipitationEventsConditions
1:00 AM57.2 °F42.8 °F59 %29.92 in6.2 miSouth (170°)2.2 mphPartly Cloudy
2:00 AM54.0 °F43.0 °F55 %29.93 in6.0 miSSW (210°)2.2 mphClear
2:00 AM57.2 °F41.0 °F55 %29.92 in6.2 miWSW (240°)4.5 mphPartly Cloudy
3:00 AM57.2 °F42.8 °F59 %29.89 in6.2 miSouth (180°)6.7 mphClear
4:00 AM57.2 °F41.0 °F55 %29.92 in6.2 miSouth (190°)4.5 mphClear
5:00 AM52.0 °F42.0 °F61 %29.93 in6.0 miCalm
5:00 AM55.4 °F41.0 °F58 %29.92 in6.2 miCalmClear
6:00 AM53.6 °F41.0 °F62 %29.92 in6.2 miWest (270°)4.5 mphMostly Cloudy
7:00 AM53.6 °F41.0 °F62 %29.95 in6.2 miSouth (170°)8.9 mphMostly Cloudy
8:00 AM57.0 °F40.0 °F42 %29.94 in6.0 miSouth (170°)4.5 mphClear
8:00 AM59.0 °F39.2 °F48 %29.92 in6.2 miSSE (160°)4.5 mphMostly Cloudy
9:00 AM66.2 °F41.0 °F40 %29.92 in6.2 miENE (70°)4.5 mphMostly Cloudy
10:00 AM73.4 °F37.4 °F27 %29.92 in6.2 miENE (70°)8.9 mphMostly Cloudy
11:00 AM77.0 °F41.0 °F17 %29.91 in6.0 miEast (80°)11.2 mphClear
11:00 AM77.0 °F37.4 °F24 %29.95 in6.2 miEast (90°)11.2 mphMostly Cloudy
12:00 PM78.8 °F28.4 °F16 %29.92 in6.2 miESE (120°)13.4 mphMostly Cloudy
1:00 PM82.4 °F32.0 °F16 %29.92 in6.2 miEast (100°)15.7 mphMostly Cloudy
2:00 PM81.0 °F35.0 °F10 %29.88 in6.0 miENE (70°)15.7 mphClear
2:00 PM80.6 °F30.2 °F16 %29.89 in6.2 miEast (90°)13.4 mphMostly Cloudy
3:00 PM82.4 °F30.2 °F15 %29.86 in6.2 miEast (100°)15.7 mph26.8 mphMostly Cloudy
4:00 PM82.4 °F28.4 °F14 %29.86 in6.2 miEast (100°)15.7 mphMostly Cloudy
5:00 PM82.0 °F29.0 °F7 %29.84 in6.0 miEast (80°)17.9 mphOvercast
5:00 PM82.4 °F28.4 °F14 %29.86 in6.2 miEast (100°)15.7 mphOvercast
6:00 PM80.6 °F28.4 °F15 %29.86 in6.2 miEast (100°)13.4 mphOvercast
7:00 PM77.0 °F32.0 °F19 %29.86 in6.2 miEast (100°)11.2 mphOvercast
8:00 PM73.0 °F35.0 °F15 %29.85 in6.0 miESE (120°)6.7 mphOvercast
8:00 PM71.6 °F33.8 °F25 %29.86 in6.2 miESE (110°)8.9 mphOvercast
9:00 PM68.0 °F37.4 °F33 %29.86 in6.2 miSE (130°)11.2 mphMostly Cloudy
10:00 PM64.4 °F37.4 °F37 %29.86 in6.2 miSE (130°)6.7 mphScattered Clouds
11:00 PM66.0 °F37.0 °F23 %29.86 in6.0 miSSE (160°)4.5 mphClear
11:00 PM64.4 °F35.6 °F34 %29.86 in6.2 miSSE (160°)6.7 mphMostly Cloudy
Hourly data recorded from UTAA, located miles away from Ashgabat, Turkmenistan







STORIES FROM OUR PARTNERS